Gilze-Rijen, Netherlands

5:52 AM CEST on August 27, 2016 (GMT +0200)
Gilze-Rijen Air Base

Weather History for EHGR - September, 2013

Change the Weather History Date:

Monday, September 23, 2013

  Actual Average Record
Temperature  
Mean Temperature 61 °F -  
Max Temperature 69 °F 59 °F 75 °F (2006)
Min Temperature 53 °F 45 °F 39 °F (2012)
Degree Days  
Heating Degree Days 4    
Growing Degree Days 11 (Base 50)    
Moisture  
Dew Point 57 °F    
Average Humidity 90    
Maximum Humidity 100    
Minimum Humidity 64    
Precipitation  
Precipitation 0.00 in - - ()
Sea Level Pressure  
Sea Level Pressure 30.26 in    
Wind  
Wind Speed 4 mph ()    
Max Wind Speed 8 mph    
Max Gust Speed -    
Visibility 4.6 miles    
Events Fog    
Averages and records for this station are not official NWS values.
T = Trace of Precipitation, MM = Missing Value Source: Averaged Metar Reports

Daily Weather History Graph

Daily Weather History Graph

Search for Another Location

Airport or City:

Trip Planner

Search our weather history database for the weather conditions in past years. The results will help you decide how hot, cold, wet, or windy it might be!

Date:

Astronomy

Sep. 23, 2013 Rise Set
Actual Time 7:28 AM CEST 7:36 PM CEST
Civil Twilight 6:54 AM CEST 8:09 PM CEST
Nautical Twilight 6:15 AM CEST 8:48 PM CEST
Astronomical Twilight 5:34 AM CEST 9:29 PM CEST
Moon 9:24 PM CEST (9/23) 12:03 PM CEST (9/23)
Length of Visible Light 13h 14m
Length of Day
12h 08m
Waning Gibbous, 83% of the Moon is Illuminated
Sep 23
Waning Gibbous
Sep 27
Last Quarter
Oct 5
New
Oct 12
First Quarter
Oct 19
Full

Hourly Weather History & Observations

Time (CEST) Temp. Dew Point Humidity Pressure Visibility Wind Dir Wind Speed Gust Speed Precip Events Conditions
12:25 AM 60.8 °F 59.0 °F 94% 30.36 in 3.1 mi West 4.6 mph - N/A   Overcast
12:31 AM 60.8 °F 59.0 °F 94% 30.33 in 3.7 mi West 4.6 mph - N/A   Overcast
12:39 AM 60.8 °F 59.0 °F 94% 30.33 in 4.3 mi West 4.6 mph - N/A   Overcast
12:43 AM 60.8 °F 59.0 °F 94% 30.33 in 4.3 mi West 4.6 mph - N/A   Overcast
12:44 AM 60.8 °F 59.0 °F 94% 30.33 in 4.3 mi West 4.6 mph - N/A   Overcast
12:51 AM 60.8 °F 59.0 °F 94% 30.33 in 5.0 mi West 5.8 mph - N/A   Overcast
12:55 AM 60.8 °F 59.0 °F 94% 30.33 in 5.6 mi West 5.8 mph - N/A   Overcast
1:06 AM 60.8 °F 59.0 °F 94% 30.33 in 6.2 mi West 5.8 mph - N/A   Mostly Cloudy
1:25 AM 60.8 °F 59.0 °F 94% 30.33 in 6.2 mi West 4.6 mph - N/A   Overcast
1:38 AM 59.0 °F 59.0 °F 100% 30.33 in 6.2 mi West 4.6 mph - N/A   Overcast
1:45 AM 59.0 °F 59.0 °F 100% 30.33 in 6.2 mi West 2.3 mph - N/A   Overcast
1:55 AM 59.0 °F 59.0 °F 100% 30.33 in 6.2 mi West 1.2 mph - N/A   Overcast
2:25 AM 59.0 °F 57.2 °F 94% 30.33 in 6.2 mi WNW 6.9 mph - N/A   Overcast
2:55 AM 59.0 °F 57.2 °F 94% 30.33 in 6.2 mi West 5.8 mph - N/A   Overcast
3:25 AM 59.0 °F 57.2 °F 94% 30.33 in 6.2 mi West 4.6 mph - N/A   Overcast
3:55 AM 59.0 °F 57.2 °F 94% 30.33 in 6.2 mi West 2.3 mph - N/A   Overcast
4:25 AM 59.0 °F 57.2 °F 94% 30.33 in 6.2 mi SW 2.3 mph - N/A   Overcast
4:55 AM 59.0 °F 57.2 °F 94% 30.33 in 4.3 mi SW 2.3 mph - N/A   Mostly Cloudy
5:25 AM 57.2 °F 57.2 °F 100% 30.30 in 3.7 mi SSW 1.2 mph - N/A   Overcast
5:55 AM 57.2 °F 57.2 °F 100% 30.30 in 3.7 mi South 2.3 mph - N/A   Overcast
6:11 AM 57.2 °F 57.2 °F 100% 30.30 in - SSE 2.3 mph - N/A   Overcast
6:15 AM 57.2 °F 57.2 °F 100% 30.30 in - SE 2.3 mph - N/A   Overcast
6:25 AM 59.0 °F 57.2 °F 94% 30.30 in 1.8 mi SSE 1.2 mph - N/A   Overcast
6:30 AM 59.0 °F 57.2 °F 94% 30.30 in 0.9 mi South 1.2 mph - N/A   Overcast
6:55 AM 59.0 °F 57.2 °F 94% 30.30 in 0.3 mi SSW 3.5 mph - N/A Fog Fog
7:17 AM 59.0 °F 57.2 °F 94% 30.30 in 0.5 mi South 3.5 mph - N/A Fog Fog
7:25 AM 59.0 °F 57.2 °F 94% 30.30 in 0.7 mi SSW 3.5 mph - N/A   Overcast
7:29 AM 59.0 °F 57.2 °F 94% 30.30 in - SSW 3.5 mph - N/A Fog Fog
7:55 AM 59.0 °F 57.2 °F 94% 30.30 in 0.2 mi SW 3.5 mph - N/A Fog Fog
7:59 AM 59.0 °F 57.2 °F 94% 30.30 in 0.9 mi SSW 3.5 mph - N/A   Overcast
8:08 AM 59.0 °F 57.2 °F 94% 30.30 in 1.1 mi SSW 3.5 mph - N/A   Overcast
8:21 AM 59.0 °F 57.2 °F 94% 30.30 in - SSW 4.6 mph - N/A   Mostly Cloudy
8:25 AM 59.0 °F 57.2 °F 94% 30.30 in - SSW 4.6 mph - N/A   Mostly Cloudy
8:29 AM 59.0 °F 59.0 °F 100% 30.30 in - SSW 4.6 mph - N/A   Overcast
8:31 AM 59.0 °F 59.0 °F 100% 30.30 in - SSW 3.5 mph - N/A   Mostly Cloudy
8:37 AM 59.0 °F 59.0 °F 100% 30.30 in - SSW 3.5 mph - N/A   Overcast
8:38 AM 59.0 °F 59.0 °F 100% 30.30 in - SSW 4.6 mph - N/A   Overcast
8:51 AM 59.0 °F 59.0 °F 100% 30.33 in - SSW 4.6 mph - N/A   Overcast
8:55 AM 59.0 °F 59.0 °F 100% 30.33 in 2.2 mi South 4.6 mph - N/A   Overcast
8:56 AM 59.0 °F 59.0 °F 100% 30.33 in - South 4.6 mph - N/A   Overcast
9:11 AM 59.0 °F 59.0 °F 100% 30.33 in - SSW 4.6 mph - N/A   Overcast
9:16 AM 59.0 °F 59.0 °F 100% 30.33 in 3.1 mi SSW 4.6 mph - N/A   Overcast
9:25 AM 59.0 °F 59.0 °F 100% 30.33 in 3.1 mi SSW 5.8 mph - N/A   Overcast
9:36 AM 60.8 °F 59.0 °F 94% 30.33 in 3.1 mi South 6.9 mph - N/A   Overcast
9:37 AM 60.8 °F 59.0 °F 94% 30.33 in 3.1 mi SSW 5.8 mph - N/A   Overcast
9:38 AM 60.8 °F 59.0 °F 94% 30.30 in 3.1 mi SSW 5.8 mph - N/A   Overcast
9:55 AM 60.8 °F 59.0 °F 94% 30.30 in 3.7 mi SW 4.6 mph - N/A   Overcast
10:16 AM 60.8 °F 59.0 °F 94% 30.30 in 5.0 mi SSW 5.8 mph - N/A   Overcast
10:19 AM 60.8 °F 59.0 °F 94% 30.30 in 4.3 mi SSW 5.8 mph - N/A   Overcast
10:25 AM 60.8 °F 59.0 °F 94% 30.30 in 5.0 mi SSW 5.8 mph - N/A   Overcast
10:29 AM 60.8 °F 59.0 °F 94% 30.30 in 5.0 mi SSW 5.8 mph - N/A   Overcast
10:35 AM 60.8 °F 59.0 °F 94% 30.30 in 5.6 mi SW 5.8 mph - N/A   Overcast
10:46 AM 62.6 °F 59.0 °F 88% 30.30 in 5.0 mi SW 5.8 mph - N/A   Mostly Cloudy
10:55 AM 62.6 °F 59.0 °F 88% 30.30 in 5.0 mi SW 4.6 mph - N/A   Mostly Cloudy
11:08 AM 62.6 °F 59.0 °F 88% 30.30 in 5.6 mi West 5.8 mph - N/A   Overcast
11:12 AM 64.4 °F 59.0 °F 83% 30.30 in 5.0 mi West 5.8 mph - N/A   Overcast
11:25 AM 62.6 °F 59.0 °F 88% 30.30 in 5.6 mi WSW 6.9 mph - N/A   Mostly Cloudy
11:43 AM 64.4 °F 59.0 °F 83% 30.30 in 6.2 mi WSW 5.8 mph - N/A   Overcast
11:55 AM 66.2 °F 59.0 °F 78% 30.30 in 6.2 mi WSW 5.8 mph - N/A   Mostly Cloudy
12:25 PM 68.0 °F 59.0 °F 73% 30.30 in 6.2 mi West 6.9 mph - N/A   Mostly Cloudy
12:55 PM 68.0 °F 57.2 °F 68% 30.30 in 6.2 mi West 5.8 mph - N/A   Mostly Cloudy
12:56 PM 68.0 °F 57.2 °F 68% 30.30 in 6.2 mi WSW 5.8 mph - N/A   Mostly Cloudy
1:04 PM 68.0 °F 55.4 °F 64% 30.30 in 6.2 mi WSW 5.8 mph - N/A   Mostly Cloudy
1:11 PM 68.0 °F 57.2 °F 68% 30.30 in 6.2 mi WSW 5.8 mph - N/A   Scattered Clouds
1:13 PM 68.0 °F 57.2 °F 68% 30.30 in 6.2 mi WSW 4.6 mph - N/A   Scattered Clouds
1:25 PM 68.0 °F 55.4 °F 64% 30.30 in 6.2 mi WSW 5.8 mph - N/A   Mostly Cloudy
1:55 PM 68.0 °F 55.4 °F 64% 30.27 in 6.2 mi West 4.6 mph - N/A   Overcast
2:25 PM 68.0 °F 55.4 °F 64% 30.27 in 6.2 mi West 5.8 mph - N/A   Mostly Cloudy
2:55 PM 68.0 °F 57.2 °F 68% 30.27 in 6.2 mi NW 8.1 mph - N/A   Overcast
3:25 PM 68.0 °F 55.4 °F 64% 30.24 in 6.2 mi NW 5.8 mph - N/A   Overcast
3:55 PM 69.8 °F 57.2 °F 64% 30.24 in 6.2 mi NNW 6.9 mph - N/A   Overcast
4:25 PM 68.0 °F 57.2 °F 68% 30.24 in 6.2 mi WNW 6.9 mph - N/A   Overcast
4:55 PM 68.0 °F 57.2 °F 68% 30.21 in 6.2 mi NW 5.8 mph - N/A   Mostly Cloudy
5:25 PM 69.8 °F 57.2 °F 64% 30.21 in 6.2 mi West 5.8 mph - N/A   Overcast
5:37 PM 68.0 °F 57.2 °F 68% 30.21 in 6.2 mi NW 5.8 mph - N/A   Overcast
5:55 PM 68.0 °F 55.4 °F 64% 30.21 in 6.2 mi WNW 6.9 mph - N/A   Overcast
6:25 PM 68.0 °F 57.2 °F 68% 30.21 in 6.2 mi NNW 5.8 mph - N/A   Mostly Cloudy
6:55 PM 66.2 °F 59.0 °F 78% 30.21 in 6.2 mi NW 4.6 mph - N/A   Overcast
7:25 PM 64.4 °F 59.0 °F 83% 30.21 in 6.2 mi WNW 3.5 mph - N/A   Overcast
7:55 PM 64.4 °F 57.2 °F 77% 30.18 in 6.2 mi NW 4.6 mph - N/A   Overcast
8:03 PM 62.6 °F 57.2 °F 82% 30.18 in 6.2 mi WNW 4.6 mph - N/A   Mostly Cloudy
8:08 PM 62.6 °F 57.2 °F 82% 30.18 in 6.2 mi WNW 3.5 mph - N/A   Mostly Cloudy
8:21 PM 60.8 °F 57.2 °F 88% 30.18 in 6.2 mi West 2.3 mph - N/A   Mostly Cloudy
8:25 PM 60.8 °F 57.2 °F 88% 30.18 in 6.2 mi West 2.3 mph - N/A   Mostly Cloudy
8:49 PM 62.6 °F 57.2 °F 82% 30.18 in 6.2 mi North 4.6 mph - N/A   Partly Cloudy
8:55 PM 62.6 °F 57.2 °F 82% 30.18 in 6.2 mi North 4.6 mph - N/A   Unknown
9:18 PM 59.0 °F 57.2 °F 94% 30.18 in 5.6 mi North 2.3 mph - N/A   Mist
9:25 PM 60.8 °F 57.2 °F 88% 30.18 in 5.0 mi North 2.3 mph - N/A   Mist
9:33 PM 59.0 °F 57.2 °F 94% 30.18 in 4.3 mi North 2.3 mph - N/A   Mist
9:34 PM 59.0 °F 55.4 °F 88% 30.18 in 5.0 mi North 3.5 mph - N/A   Mist
9:41 PM 59.0 °F 57.2 °F 94% 30.18 in 4.3 mi North 2.3 mph - N/A   Mist
9:44 PM 59.0 °F 57.2 °F 94% 30.18 in 3.7 mi NNE 1.2 mph - N/A   Mist
9:48 PM 59.0 °F 57.2 °F 94% 30.18 in - NNE 1.2 mph - N/A   Mist
9:55 PM 57.2 °F 57.2 °F 100% 30.18 in 3.1 mi NE 1.2 mph - N/A   Mist
10:03 PM 57.2 °F 55.4 °F 94% 30.18 in 5.0 mi ENE 1.2 mph - N/A   Mist
10:04 PM 57.2 °F 55.4 °F 94% 30.18 in 3.7 mi NE 1.2 mph - N/A   Mist
10:09 PM 57.2 °F 55.4 °F 94% 30.18 in - NE 2.3 mph - N/A   Mist
10:15 PM 57.2 °F 55.4 °F 94% 30.18 in 3.1 mi NNE 2.3 mph - N/A   Mist
10:16 PM 57.2 °F 55.4 °F 94% 30.18 in 3.1 mi NE 2.3 mph - N/A   Mist
10:21 PM 55.4 °F 55.4 °F 100% 30.18 in 2.8 mi NE 2.3 mph - N/A   Mist
10:25 PM 55.4 °F 55.4 °F 100% 30.18 in - East 1.2 mph - N/A   Mist
10:31 PM 55.4 °F 55.4 °F 100% 30.18 in 3.1 mi East 1.2 mph - N/A   Mist
10:37 PM 55.4 °F 53.6 °F 94% 30.18 in 2.8 mi East 1.2 mph - N/A   Mist
10:44 PM 55.4 °F 55.4 °F 100% 30.18 in 2.2 mi Calm Calm - N/A   Mist
10:49 PM 55.4 °F 55.4 °F 100% 30.18 in 0.6 mi Calm Calm - N/A Fog Fog
10:55 PM 55.4 °F 53.6 °F 94% 30.18 in 1.4 mi Calm Calm - N/A   Mist
10:57 PM 53.6 °F 53.6 °F 100% 30.18 in - Calm Calm - N/A   Mist
11:03 PM 55.4 °F 53.6 °F 94% 30.18 in - Calm Calm - N/A   Partly Cloudy
11:14 PM 53.6 °F 53.6 °F 100% 30.18 in 4.3 mi Calm Calm - N/A   Mostly Cloudy
11:18 PM 53.6 °F 53.6 °F 100% 30.18 in 3.7 mi Calm Calm - N/A   Scattered Clouds
11:25 PM 53.6 °F 53.6 °F 100% 30.15 in - Calm Calm - N/A   Mist
11:32 PM 53.6 °F 53.6 °F 100% 30.15 in 3.1 mi Calm Calm - N/A   Partly Cloudy
11:39 PM 53.6 °F 53.6 °F 100% 30.15 in 5.0 mi Calm Calm - N/A   Partly Cloudy
11:43 PM 53.6 °F 53.6 °F 100% 30.15 in 4.3 mi Calm Calm - N/A   Scattered Clouds
11:55 PM 53.6 °F 53.6 °F 100% 30.15 in 4.3 mi Calm Calm - N/A   Partly Cloudy